STARLINK-5861, 55921

Orbit data source: Space-Track

STARLINK-5861, 55921 is a payload satellite owned by SpaceX/Seattle (US) in LEO that was launched on Fri, 17 Mar 2023 UTC via an FALCON 9 launch vehicle from the Air Force Western Test Range (AFWTR). Payload-class satellites include a variety of spacecraft equipped with specific instruments for various scientific and technological missions. These include communications satellites like Starlink; space stations such as the ISS; scientific satellites like the Hubble; Earth observation satellites from companies like Planet Labs, Umbra, and HawkEye 360; GPS; miniature CubeSats for education and research; and military/defense satellites.

Loading next visibility...
Identifier
55921, 2023-037H
Orbit
LEO
Country
Flag of USUS
Related business
Manufacturer
SpaceX/Seattle
Mission
Operational Commercial Communications
Bus & Motor
STARLINK, Unknown motor
Mass
305 kg wet, ~290 kg dry
Launch date (UTC)
2023-03-17 (3 years ago)
Launch vehicle
FALCON 9
Launch site
Air Force Western Test Range (AFWTR)
Object type
Payload
Rocket body
Debris
Shape & HBR
Box + 1 Pan, 10.1 m
Radar Cross Section
11.087 m², Large (>1 m²)

Expand to show TLE details & history
Last TLE update: 7 hours ago

TLE from 7 hours ago
0 STARLINK-5861
1 55921U 23037H   25349.87398113 -.00000058  00000-0  29449-5 0  9997
2 55921  69.9989 155.7333 0002858 271.3772  88.7060 14.98330089150935
Epoch: 2025-12-15T20:58Z
TLE epoch observation values (Epoch: 2025-12-15T20:58:31.969Z)
Latitude
Longitude
116.33381°
Altitude
574.435 km
Speed
7.574 km/s
True Right ascension
10h 22m 55s
True Declination
0° 00' 00"
Sunlit
Object was in daylight at epoch
Visualization orbit readout
Latitude
Unknown
Longitude
Unknown
Altitude
Unknown
Speed
Unknown
Apparent Right ascension
Unknown
Apparent Declination
Unknown
Sunlit
N/A
Visualization observer readout
Local Sidereal Time
03:06:49
Azimuth
Unknown
Elevation
Unknown
Doppler factor
Unknown
Orbital elements
Apogee altitude
571.99 km
Perigee altitude
568.018 km
Semi-major axis
6,948.141 km
Eccentricity
0.00029
Inclination
69.9989°
RAAN
155.7333°
Arg. of periapsis
271.3772°
True anomaly
88.73874°
Mean anomaly
88.706°
Eccentric anomaly
88.72237°
Mean motion
3.74749 °/min
Orbital period
96.06 mins
BSTAR
0.0000029449
Loading maneuver chart data...
Computing Atmospheric mass density...
Loading historical data...
Loading historical data...
Loading historical data...
Loading historical data...
Loading historical data...
Loading historical data...
Loading historical data...

Documentation

Showing up to 5 results
|